Content
SEND FEEDBACK

Daily
Averages
Monthly
Summary
United States of America

ELDORADO SPRINGS, COLORADO


Home > North America > United States > Colorado
Elevation: 5322 feet     Latitude: 40 01N     Longitude: 105 16W

WEATHER
 
SELECT A DAY
Number of Records: 92,166;   Date Range: 3/4/10 - 10/29/14
 
SHARE

PRINT THIS DATA

[ ← Previous Day ]
WEATHER ALMANAC - JANUARY 23, 2013
[ Next Day → ]
[ °C ]   °F
Weather ElementAverageHighLow
Temperature41.8 °F65.7 °F (3:16 pm)17.2 °F (1:56 am)
Dewpoint0.8 °F12.7 °F (11:56 pm)-10.7 °F (10:36 am)
Humidity25.8 %61 % (1:36 am)5 % (10:36 am)
Barometer30.13 in30.17 in (9:56 am)30.08 in (2:56 pm)
Wind Speed4.7 mph16.1 mph (11:16 am)
Wind Gust29.9 mph (2:56 pm)
Weather ElementAverage
Visibility9.9 mi
Wind DirectionSSE (148.3 °)

Weather ElementTotal
Precipitation---
Heating Degree Days23.6 (Base 65)
Averaged from 71 records on January 23, 2013
WEATHER CONDITIONS BREAKOUT
WIND DIRECTION BREAKOUT
WEATHER BY HOUR - JANUARY 23, 2013
[ °C ]   °F
Local TimeTemperatureDewpointHumidityBarometerVisibilityWind DirectionWind SpeedGust SpeedPrecipitationEventsConditions
12:36 AM23.0 °F5.7 °F48 %30.14 in10.0 miCalmClear
12:56 AM20.8 °F5.7 °F52 %30.14 in10.0 miSSW (210°)3.5 mphClear
1:16 AM19.2 °F5.4 °F55 %30.14 in10.0 miCalmClear
1:36 AM17.8 °F6.4 °F61 %30.14 in10.0 miCalmClear
1:56 AM17.2 °F4.8 °F58 %30.14 in10.0 miSouth (190°)4.6 mphClear
2:16 AM18.9 °F4.5 °F54 %30.14 in10.0 miSSW (210°)4.6 mphClear
2:36 AM19.6 °F4.6 °F52 %30.13 in10.0 miCalmClear
2:56 AM19.0 °F6.4 °F58 %30.13 in10.0 miSSW (200°)5.8 mphClear
3:16 AM20.8 °F4.5 °F49 %30.13 in10.0 miNorth (10°)3.5 mphClear
3:36 AM20.5 °F3.7 °F48 %30.13 in10.0 miCalmClear
3:56 AM21.2 °F5.0 °F50 %30.13 in10.0 miCalmClear
4:16 AM21.7 °F5.5 °F50 %30.13 in10.0 miSW (220°)3.5 mphClear
4:36 AM21.9 °F7.0 °F53 %30.14 in10.0 miSSW (200°)3.5 mphClear
4:56 AM23.2 °F7.9 °F52 %30.13 in10.0 miCalmClear
5:16 AM24.6 °F7.3 °F48 %30.13 in10.0 miCalmClear
5:36 AM27.1 °F5.5 °F40 %30.14 in10.0 miWSW (240°)6.9 mphClear
5:56 AM29.3 °F3.7 °F34 %30.14 in10.0 miCalmClear
6:16 AM28.2 °F4.6 °F37 %30.15 in10.0 miSSW (200°)4.6 mphClear
6:36 AM29.7 °F3.9 °F34 %30.15 in10.0 miSSW (200°)3.5 mphClear
6:56 AM33.6 °F-1.5 °F22 %30.15 in10.0 miSouth (180°)8.1 mphClear
7:16 AM37.4 °F-4.0 °F17 %30.15 in10.0 miSSW (210°)6.9 mphClear
7:36 AM36.9 °F-2.0 °F19 %30.14 in10.0 miSW (220°)6.9 mphClear
7:56 AM36.7 °F1.0 °F22 %30.13 in7.0 miSW (230°)6.9 mphClear
8:16 AM41.2 °F-1.5 °F17 %30.14 in10.0 miWest (280°)9.2 mphClear
8:36 AM48.9 °F-2.6 °F12 %30.14 in10.0 miCalmClear
8:56 AM58.1 °F-9.4 °F6 %30.15 in10.0 miWSW (250°)13.8 mph19.6 mphClear
9:16 AM59.9 °F-9.8 °F6 %30.15 in10.0 miWest (260°)11.5 mphClear
9:36 AM55.6 °F-7.2 °F7 %30.16 in10.0 miWSW (240°)4.6 mphClear
9:56 AM55.8 °F-8.9 °F7 %30.17 in10.0 miWSW (240°)3.5 mphClear
10:16 AM56.5 °F-7.2 °F7 %30.15 in10.0 miWSW (240°)10.4 mphClear
10:36 AM61.2 °F-10.7 °F5 %30.16 in10.0 miWSW (250°)10.4 mphClear
10:56 AM60.1 °F-6.5 °F7 %30.15 in10.0 miWest (280°)11.5 mphClear
11:16 AM62.6 °F-8.9 °F5 %30.14 in10.0 miWest (280°)16.1 mph23.0 mphClear
11:36 AM60.8 °F-8.7 °F6 %30.14 in10.0 miSW (230°)5.8 mphClear
11:56 AM61.2 °F-8.9 °F6 %30.12 in10.0 miSouth (180°)8.1 mphClear
12:16 PM62.1 °F-8.5 °F6 %30.11 in10.0 miSSW (210°)4.6 mphClear
12:36 PM62.6 °F-10.1 °F5 %30.10 in10.0 miSouth (180°)6.9 mphClear
12:56 PM61.7 °F-10.7 °F5 %30.10 in10.0 miSSE (160°)8.1 mphClear
1:16 PM59.9 °F-9.0 °F6 %30.10 in10.0 miSSE (150°)6.9 mphClear
1:36 PM60.6 °F-8.1 °F6 %30.10 in10.0 miSSW (200°)4.6 mphClear
1:56 PM61.3 °F-7.1 °F6 %30.10 in10.0 miCalmClear
2:16 PM60.3 °F-4.0 °F7 %30.10 in10.0 miCalmClear
2:36 PM63.0 °F-3.6 °F7 %30.09 in10.0 miWNW (290°)11.5 mphClear
2:56 PM65.3 °F-7.2 °F5 %30.08 in7.0 miWNW (290°)13.8 mph29.9 mphClear
3:16 PM65.7 °F-7.2 °F5 %30.08 in10.0 miNW (310°)13.8 mph20.7 mphClear
3:36 PM64.4 °F-6.3 °F6 %30.08 in10.0 miNW (320°)6.9 mph17.3 mphClear
3:56 PM58.1 °F-7.1 °F7 %30.09 in10.0 miSSE (150°)4.6 mphClear
4:16 PM59.5 °F-4.9 °F7 %30.09 in10.0 miCalmClear
4:36 PM55.8 °F-3.6 °F9 %30.09 in10.0 miEast (100°)8.1 mphClear
4:56 PM56.1 °F-2.2 °F9 %30.10 in10.0 miESE (120°)3.5 mphClear
5:16 PM54.9 °F-2.2 °F10 %30.11 in10.0 miEast (90°)9.2 mphClear
5:36 PM48.0 °F-0.4 °F14 %30.11 in10.0 miSE (130°)5.8 mphClear
5:56 PM49.1 °F4.1 °F16 %30.12 in10.0 miSSW (200°)3.5 mph9.2 mphClear
6:16 PM47.5 °F3.9 °F17 %30.13 in10.0 miSSW (200°)5.8 mphClear
6:36 PM44.8 °F4.8 °F19 %30.14 in10.0 miSSE (160°)4.6 mphClear
6:56 PM42.6 °F5.7 °F22 %30.14 in10.0 miSouth (190°)4.6 mphClear
7:16 PM40.1 °F6.1 °F24 %30.14 in10.0 miCalmClear
7:36 PM37.6 °F7.5 °F29 %30.15 in10.0 miCalmClear
7:56 PM38.7 °F6.4 °F26 %30.14 in10.0 miCalmClear
8:16 PM36.3 °F7.5 °F30 %30.15 in10.0 miCalmClear
8:36 PM33.8 °F9.0 °F36 %30.14 in10.0 miCalmClear
8:56 PM33.1 °F8.6 °F36 %30.14 in10.0 miWSW (250°)4.6 mphClear
9:16 PM33.3 °F9.5 °F37 %30.13 in10.0 miSW (230°)3.5 mphClear
9:36 PM33.6 °F9.1 °F36 %30.12 in10.0 miCalmClear
9:56 PM33.3 °F8.4 °F35 %30.13 in10.0 miCalmClear
10:16 PM33.4 °F9.9 °F37 %30.12 in10.0 miEast (90°)3.5 mphClear
10:36 PM33.1 °F10.4 °F39 %30.14 in10.0 miCalmClear
10:56 PM32.4 °F10.4 °F40 %30.14 in10.0 miNW (320°)3.5 mphClear
11:16 PM32.7 °F10.6 °F40 %30.13 in10.0 miENE (70°)3.5 mphClear
11:36 PM32.0 °F11.5 °F43 %30.14 in10.0 miNW (320°)4.6 mphClear
11:56 PM33.1 °F12.7 °F43 %30.14 in10.0 miNorth (350°)3.5 mphClear
Hourly data recorded from KEIK, located miles away from Eldorado Springs, Colorado







STORIES FROM OUR PARTNERS